Tracking 26935 objects as of 5-Feb-2023
HD Live streaming from Space Station
objects crossing your sky now

BSAT-3A

Track BSAT-3A now!
BSAT-3A is classified as:


NORAD ID: 32019
Int'l Code: 2007-036B
Perigee: 35,782.8 km
Apogee: 35,804.1 km
Inclination: 0.1 °
Period: 1,436.1 minutes
Semi major axis: 42164 km
RCS: 12.5893 m2 (large)
Launch date: August 14, 2007
Source: Japan (JPN)
Launch site: FRENCH GUIANA (FRGUI)

BSAT-3a, is a 4,365-pound satellite for the Broadcasting Satellite System Corp. of Japan.
Your satellite tracking list
Your tracking list is empty




NASA's NSSDC Master Catalog

Two Line Element Set (TLE):
1 32019U 07036B   23035.53749812 -.00000348  00000-0  00000-0 0  9999
2 32019   0.0910 251.1983 0002528  29.2106 157.3410  1.00272758 38197
Source of the keplerian elements: AFSPC